Portland, OR

6:29 AM PDT on April 22, 2018 (GMT -0700)
Portland International

Weather History for KPDX - August, 2013

Change the Weather History Date:

Saturday, August 24, 2013

  Actual Average Record
Temperature  
Mean Temperature 71 °F 69 °F  
Max Temperature 78 °F 80 °F 99 °F (1982)
Min Temperature 63 °F 57 °F 47 °F (1992)
Degree Days  
Heating Degree Days 0 0  
Month to date heating degree days 3 0  
Since 1 June heating degree days 54 108  
Since 1 July heating degree days 5 17  
Cooling Degree Days 6 4  
Month to date cooling degree days 157 126  
Year to date cooling degree days 407 337  
Since 1 June cooling degree days 392 320  
Growing Degree Days 20 (Base 50)    
Moisture  
Dew Point 54 °F    
Average Humidity 64    
Maximum Humidity 84    
Minimum Humidity 43    
Precipitation  
Precipitation 0.00 in 0.03 in 0.89 in (1973)
Month to date precipitation 0.07 0.46  
Year to date precipitation 14.57 20.23  
Snow  
Snow 0.00 in - - ()
Month to date snowfall 0.0  
Since 1 June snowfall 0.0  
Since 1 July snowfall 0.0  
Snow Depth 0.00 in    
Sea Level Pressure  
Sea Level Pressure 29.90 in    
Wind  
Wind Speed 5 mph (NW)    
Max Wind Speed 13 mph    
Max Gust Speed 16 mph    
Visibility 10 miles    
Events      
T = Trace of Precipitation, MM = Missing Value Source: NWS Daily Summary

Daily Weather History Graph

Daily Weather History Graph

Search for Another Location

Airport or City:

Astronomy

Aug. 24, 2013 Rise Set
Actual Time 6:22 AM PDT 8:02 PM PDT
Civil Twilight 5:50 AM PDT 8:33 PM PDT
Nautical Twilight 5:12 AM PDT 9:11 PM PDT
Astronomical Twilight 4:31 AM PDT 9:52 PM PDT
Moon 9:42 PM PDT (8/24) 10:43 AM PDT (8/24)
Length of Visible Light 14h 42m
Length of Day
13h 39m
Waning Gibbous, 83% of the Moon is Illuminated
Aug 24
Waning Gibbous
Aug 28
Last Quarter
Sep 5
New
Sep 12
First Quarter
Sep 19
Full

Hourly Weather History & Observations

Time (PDT) Temp. Dew Point Humidity Pressure Visibility Wind Dir Wind Speed Gust Speed Precip Events Conditions
12:53 AM 64.9 °F 57.0 °F 75% 29.91 in 10.0 mi Calm Calm - N/A   Mostly Cloudy
1:53 AM 64.0 °F 57.0 °F 78% 29.92 in 10.0 mi NW 4.6 mph - N/A   Mostly Cloudy
2:15 AM 64.4 °F 57.2 °F 77% 29.92 in 10.0 mi WNW 6.9 mph - N/A   Overcast
2:51 AM 64.4 °F 57.2 °F 77% 29.91 in 10.0 mi NNW 5.8 mph - N/A   Overcast
2:53 AM 64.0 °F 57.0 °F 78% 29.91 in 10.0 mi NNW 4.6 mph - N/A   Overcast
3:53 AM 63.0 °F 57.0 °F 81% 29.91 in 10.0 mi NW 5.8 mph - N/A   Overcast
4:53 AM 63.0 °F 57.0 °F 81% 29.91 in 10.0 mi NNW 5.8 mph - N/A   Overcast
5:53 AM 63.0 °F 57.0 °F 81% 29.90 in 10.0 mi NW 3.5 mph - N/A   Mostly Cloudy
6:53 AM 63.0 °F 57.0 °F 81% 29.91 in 10.0 mi Calm Calm - N/A   Overcast
7:53 AM 64.0 °F 55.9 °F 75% 29.91 in 10.0 mi NW 3.5 mph - N/A   Overcast
8:53 AM 64.9 °F 55.9 °F 73% 29.91 in 10.0 mi NW 4.6 mph - N/A   Overcast
9:53 AM 64.9 °F 57.0 °F 75% 29.91 in 10.0 mi WNW 5.8 mph - N/A   Overcast
10:53 AM 66.9 °F 55.9 °F 68% 29.92 in 10.0 mi NW 4.6 mph - N/A   Mostly Cloudy
11:53 AM 69.1 °F 55.0 °F 61% 29.91 in 10.0 mi WNW 3.5 mph - N/A   Mostly Cloudy
12:53 PM 71.1 °F 54.0 °F 55% 29.90 in 10.0 mi WNW 5.8 mph - N/A   Mostly Cloudy
1:53 PM 73.9 °F 53.1 °F 48% 29.89 in 10.0 mi NW 4.6 mph - N/A   Mostly Cloudy
2:53 PM 75.0 °F 53.1 °F 46% 29.88 in 10.0 mi West 3.5 mph - N/A   Mostly Cloudy
3:53 PM 75.9 °F 51.1 °F 42% 29.87 in 10.0 mi WNW 8.1 mph - N/A   Mostly Cloudy
4:53 PM 75.9 °F 52.0 °F 43% 29.86 in 10.0 mi WNW 9.2 mph - N/A   Mostly Cloudy
5:53 PM 75.9 °F 52.0 °F 43% 29.85 in 10.0 mi NW 10.4 mph - N/A   Mostly Cloudy
6:53 PM 73.9 °F 51.1 °F 45% 29.85 in 10.0 mi NNW 6.9 mph - N/A   Mostly Cloudy
7:53 PM 71.1 °F 51.1 °F 49% 29.86 in 10.0 mi NNW 8.1 mph - N/A   Mostly Cloudy
8:53 PM 69.1 °F 51.1 °F 53% 29.88 in 10.0 mi NNW 6.9 mph - N/A   Mostly Cloudy
9:53 PM 66.9 °F 51.1 °F 57% 29.90 in 10.0 mi NNW 8.1 mph - N/A   Scattered Clouds
10:53 PM 66.0 °F 51.1 °F 59% 29.91 in 10.0 mi NNW 6.9 mph - N/A   Mostly Cloudy
11:53 PM 64.9 °F 52.0 °F 63% 29.91 in 10.0 mi NNW 5.8 mph - N/A   Mostly Cloudy